Location: Strawberry
(45.6646°N, 111.9596°W)
Time: 20:58:19
(UTC+00:00)

Explorer 11/Cluster Stage 4 - Pass Details

Date: 09 October 2022
Orbit: 466 x 1248 km, 28.8° (Epoch: 28 November)

Event Time Altitude Azimuth Distance (km) Brightness Sun altitude
Rises 17:42:27 0° 238° (WSW) 4,063 10.3 33.9°
Reaches altitude 10° 17:45:56 10° 224° (SW) 3,164 10.0 34.2°
Maximum altitude 17:51:51 23° 177° (S) 2,388 10.6 34.7°
Drops below altitude 10° 17:57:46 10° 130° (SE) 3,176 10.7 35.1°
Sets 18:01:17 0° 117° (ESE) 4,081 10.9 35.3°
